Weather History for KHEF - December, 2011

Change the Weather History Date:

Saturday, December 10, 2011

  Actual Average Record
Temperature  
Mean Temperature 36 °F -  
Max Temperature 46 °F 46 °F 66 °F (2012)
Min Temperature 26 °F 27 °F 15 °F (2000)
Degree Days  
Heating Degree Days 29    
Moisture  
Dew Point 23 °F    
Average Humidity 70    
Maximum Humidity 93    
Minimum Humidity 34    
Precipitation  
Precipitation 0.00 in - - ()
Sea Level Pressure  
Sea Level Pressure 30.35 in    
Wind  
Wind Speed 2 mph (NNW)    
Max Wind Speed 15 mph    
Max Gust Speed 20 mph    
Visibility 10 miles    
Events      
Averages and records for this station are not official NWS values.
T = Trace of Precipitation, MM = Missing Value Source: NWS Daily Summary

Daily Weather History Graph

Daily Weather History Graph

Search for Another Location

Airport or City:

Trip Planner

Search our weather history database for the weather conditions in past years. The results will help you decide how hot, cold, wet, or windy it might be!

Date:

Astronomy

Dec. 10, 2011 Rise Set
Actual Time 7:17 AM EST 4:48 PM EST
Civil Twilight 6:47 AM EST 5:18 PM EST
Nautical Twilight 6:14 AM EST 5:51 PM EST
Astronomical Twilight 5:41 AM EST 6:23 PM EST
Moon 5:00 PM EST (12/10) 7:15 AM EST (12/10)
Length of Visible Light 10h 30m
Length of Day
9h 31m
Full, 100% of the Moon is Illuminated
Dec 10
Full
Dec 17
Last Quarter
Dec 24
New
Jan 1
First Quarter
Jan 9
Full

Hourly Weather History & Observations

Time (EST) Temp. Windchill Dew Point Humidity Pressure Visibility Wind Dir Wind Speed Gust Speed Precip Events Conditions
12:15 AM 30.2 °F - 26.6 °F 86% 30.27 in 10.0 mi Calm Calm - N/A   Clear
12:35 AM 32.0 °F - 28.4 °F 87% 30.27 in 10.0 mi Calm Calm - N/A   Clear
12:55 AM 32.0 °F - 28.4 °F 87% 30.26 in 10.0 mi Calm Calm - N/A   Clear
1:15 AM 32.0 °F - 28.4 °F 87% 30.25 in 10.0 mi Calm Calm - N/A   Clear
1:35 AM 32.0 °F - 28.4 °F 87% 30.25 in 10.0 mi Calm Calm - N/A   Clear
1:55 AM 32.0 °F - 28.4 °F 87% 30.25 in 10.0 mi Calm Calm - N/A   Clear
2:15 AM 30.2 °F - 26.6 °F 86% 30.25 in 10.0 mi Calm Calm - N/A   Clear
2:35 AM 30.2 °F - 26.6 °F 86% 30.25 in 10.0 mi Calm Calm - N/A   Clear
2:55 AM 30.2 °F - 26.6 °F 86% 30.26 in 10.0 mi Calm Calm - N/A   Clear
3:15 AM 30.2 °F - 28.4 °F 93% 30.27 in 10.0 mi Calm Calm - N/A   Clear
3:35 AM 30.2 °F - 26.6 °F 86% 30.25 in 10.0 mi Calm Calm - N/A   Clear
3:55 AM 30.2 °F - 26.6 °F 86% 30.25 in 10.0 mi Calm Calm - N/A   Clear
4:15 AM 30.2 °F - 26.6 °F 86% 30.25 in 10.0 mi Calm Calm - N/A   Clear
4:35 AM 30.2 °F - 26.6 °F 86% 30.26 in 10.0 mi Calm Calm - N/A   Clear
4:55 AM 30.2 °F - 26.6 °F 86% 30.27 in 10.0 mi Calm Calm - N/A   Clear
5:15 AM 30.2 °F - 26.6 °F 86% 30.27 in 10.0 mi Calm Calm - N/A   Clear
5:35 AM 28.4 °F - 26.6 °F 93% 30.28 in 10.0 mi Calm Calm - N/A   Clear
5:55 AM 30.2 °F 26.7 °F 24.8 °F 80% 30.29 in 10.0 mi NW 3.5 mph - N/A   Clear
6:15 AM 28.4 °F - 24.8 °F 86% 30.31 in 10.0 mi Calm Calm - N/A   Clear
6:35 AM 30.2 °F - 26.6 °F 86% 30.33 in 10.0 mi Calm Calm - N/A   Clear
6:50 AM 28.4 °F - 24.8 °F 86% 30.33 in 10.0 mi Calm Calm - N/A   Clear
8:50 AM 33.8 °F - 28.4 °F 81% 30.36 in 10.0 mi Calm Calm - N/A   Clear
9:50 AM 42.8 °F 37.0 °F 30.2 °F 61% 30.39 in 10.0 mi North 10.4 mph - N/A   Clear
10:45 AM 42.8 °F 36.6 °F 28.4 °F 57% 30.40 in 10.0 mi North 11.5 mph - N/A   Mostly Cloudy
12:45 PM 44.6 °F 37.8 °F 21.2 °F 39% 30.37 in 10.0 mi NNW 15.0 mph 19.6 mph N/A   Clear
1:45 PM 46.4 °F 40.7 °F 19.4 °F 34% 30.37 in 10.0 mi NNW 12.7 mph 18.4 mph N/A   Clear
2:45 PM 46.4 °F 40.4 °F 19.4 °F 34% 30.36 in 10.0 mi North 13.8 mph 18.4 mph N/A   Clear
3:45 PM 44.6 °F 38.8 °F 17.6 °F 34% 30.37 in 10.0 mi NNW 11.5 mph 17.3 mph N/A   Clear
4:45 PM 39.2 °F 33.6 °F 17.6 °F 42% 30.40 in 10.0 mi North 8.1 mph - N/A   Clear
5:50 PM 35.6 °F 30.7 °F 17.6 °F 48% 30.42 in 10.0 mi NNW 5.8 mph - N/A   Clear
6:50 PM 33.8 °F 27.7 °F 15.8 °F 48% 30.45 in 10.0 mi NNW 6.9 mph - N/A   Clear
7:50 PM 33.8 °F 27.0 °F 15.8 °F 48% 30.49 in 10.0 mi North 8.1 mph - N/A   Clear
8:45 PM 33.8 °F 26.4 °F 14.0 °F 44% 30.50 in 10.0 mi North 9.2 mph - N/A   Clear
9:45 PM 33.8 °F - 12.2 °F 41% 30.52 in 10.0 mi North - - N/A   Clear
10:35 PM 30.2 °F - 14.0 °F 51% 30.54 in 10.0 mi Calm Calm - N/A   Clear
10:55 PM 26.6 °F 21.2 °F 12.2 °F 55% 30.54 in 10.0 mi NNW 4.6 mph - N/A   Clear
11:15 PM 26.6 °F - 12.2 °F 55% 30.55 in 10.0 mi Calm Calm - N/A   Clear
11:35 PM 26.6 °F 22.6 °F 15.8 °F 64% 30.55 in 10.0 mi NNW 3.5 mph - N/A   Clear
11:55 PM 26.6 °F 19.1 °F 15.8 °F 64% 30.55 in 10.0 mi NNW 6.9 mph - N/A   Clear